Content
SEND FEEDBACK

Daily
Averages
Monthly
Summary
Australia

GIRVAN, NEW SOUTH WALES


Home > Oceania > Australia > New South Wales
Elevation: 397 feet     Latitude: 32 27S     Longitude: 152 06E

WEATHER
 
SELECT A DAY
Number of Records: 239,357;   Date Range: 2/21/03 - 8/31/14
 
SHARE

PRINT THIS DATA

[ ← Previous Day ]
WEATHER ALMANAC - JANUARY 31, 2013
[ Next Day → ]
[ °C ]   °F
Weather ElementAverageHighLow
Temperature76.7 °F86 °F (2:00 pm)66.2 °F (3:30 am)
Dewpoint68.5 °F71 °F (2:00 pm)66 °F (2:00 am)
Humidity75.9 %100 % (12:00 am)49 % (3:00 pm)
Barometer29.84 in29.98 in (12:00 am)29.71 in (7:00 pm)
Wind Speed9.3 mph18.4 mph (5:30 pm)
Weather ElementAverage
Visibility7.3 mi
Wind DirectionESE (104 °)

Weather ElementTotal
Precipitation---
Cooling Degree Days11.1 (Base 65)
Growing Degree Days26.1 (Base 50)
Averaged from 63 records on January 31, 2013
WEATHER CONDITIONS BREAKOUT
WIND DIRECTION BREAKOUT
WEATHER BY HOUR - JANUARY 31, 2013
[ °C ]   °F
Local TimeTemperatureDewpointHumidityBarometerVisibilityWind DirectionWind SpeedGust SpeedPrecipitationEventsConditions
12:00 AM68.0 °F68.0 °F100 %29.98 in6.2 miENE (60°)3.5 mph
12:30 AM68.0 °F66.2 °F94 %29.95 in6.2 miEast (100°)4.6 mph
1:00 AM69.8 °F68.0 °F94 %29.95 in6.2 miEast (90°)4.6 mph
1:30 AM68.0 °F66.2 °F94 %29.95 in6.2 miEast (80°)5.8 mph
2:00 AM68.0 °F66.0 °F92 %29.95 inEast (90°)2.3 mph
2:00 AM68.0 °F66.2 °F94 %29.95 in6.2 miEast (90°)2.3 mph
2:30 AM68.0 °F66.2 °F94 %29.92 in6.2 miESE (120°)5.8 mph
3:00 AM68.0 °F66.2 °F94 %29.92 in6.2 miEast (90°)4.6 mphScattered Clouds
3:00 AM67.0 °F66.0 °F96 %29.94 inEast (90°)4.6 mph
3:30 AM66.2 °F66.2 °F100 %29.92 in6.2 miEast (100°)3.5 mphMostly Cloudy
4:00 AM68.0 °F68.0 °F100 %29.92 in6.2 miEast (100°)5.8 mphMostly Cloudy
4:30 AM69.8 °F66.2 °F88 %29.92 in6.2 miEast (90°)5.8 mphOvercast
5:00 AM69.0 °F67.0 °F92 %29.92 inEast (90°)6.9 mph
5:00 AM69.8 °F68.0 °F94 %29.92 in6.2 miEast (90°)6.9 mphMostly Cloudy
5:30 AM68.0 °F68.0 °F100 %29.92 in6.2 miEast (90°)6.9 mph
6:00 AM68.0 °F68.0 °F100 %29.92 inEast (90°)6.9 mphClear
6:00 AM69.0 °F67.0 °F92 %29.92 in16.0 miEast (90°)6.9 mphPartly Cloudy
6:30 AM69.8 °F68.0 °F94 %29.92 inEast (90°)6.9 mphClear
7:00 AM69.8 °F68.0 °F94 %29.92 inEast (80°)6.9 mphClear
7:30 AM71.6 °F69.8 °F94 %29.92 inENE (60°)5.8 mphClear
8:00 AM73.0 °F69.0 °F83 %29.93 inNNE (30°)6.9 mph
8:00 AM73.4 °F69.8 °F88 %29.92 inNNE (30°)6.9 mphClear
8:30 AM75.2 °F68.0 °F78 %29.92 inNNE (30°)6.9 mphClear
9:00 AM77.0 °F66.2 °F69 %29.92 in6.2 miNNE (30°)8.1 mphPartly Cloudy
9:00 AM76.0 °F67.0 °F66 %29.93 in19.0 miNNE (30°)8.1 mphPartly Cloudy
9:30 AM77.0 °F66.2 °F69 %29.92 in6.2 miNNE (20°)9.2 mphScattered Clouds
10:00 AM77.0 °F66.2 °F69 %29.92 in6.2 miNNW (340°)10.4 mphScattered Clouds
10:30 AM78.8 °F68.0 °F69 %29.89 in6.2 miNNW (330°)8.1 mphScattered Clouds
11:00 AM81.0 °F68.0 °F57 %29.91 inNNW (340°)6.9 mph
11:00 AM80.6 °F68.0 °F65 %29.89 in6.2 miNNW (340°)6.9 mphPartly Cloudy
11:30 AM82.4 °F68.0 °F62 %29.89 in6.2 miWNW (290°)8.1 mphPartly Cloudy
12:00 PM82.4 °F68.0 °F62 %29.86 in6.2 miNW (310°)8.1 mphPartly Cloudy
12:00 PM83.0 °F67.0 °F50 %29.88 in19.0 miNW (310°)8.1 mphPartly Cloudy
12:30 PM84.2 °F68.0 °F58 %29.86 in6.2 miNW (320°)6.9 mphPartly Cloudy
1:00 PM84.2 °F68.0 °F58 %29.83 in6.2 miWest (270°)5.8 mphPartly Cloudy
1:30 PM84.2 °F69.8 °F62 %29.83 in6.2 miSE (130°)11.5 mphScattered Clouds
2:00 PM85.0 °F71.0 °F53 %29.81 inSE (130°)12.7 mph
2:00 PM86.0 °F69.8 °F58 %29.80 in6.2 miSE (130°)12.7 mphScattered Clouds
2:30 PM86.0 °F69.8 °F58 %29.80 in6.2 miESE (120°)13.8 mphScattered Clouds
3:00 PM84.2 °F69.8 °F62 %29.77 in6.2 miNNE (30°)5.8 mphPartly Cloudy
3:00 PM85.0 °F69.0 °F49 %29.79 in19.0 miNNE (30°)5.8 mph
3:30 PM86.0 °F69.8 °F58 %29.77 in6.2 miEast (80°)15.0 mphPartly Cloudy
4:00 PM84.2 °F69.8 °F62 %29.77 in6.2 miENE (70°)15.0 mphPartly Cloudy
4:30 PM86.0 °F69.8 °F58 %29.74 in6.2 miENE (70°)15.0 mphPartly Cloudy
5:00 PM84.0 °F69.0 °F53 %29.76 inEast (80°)16.1 mph
5:00 PM84.2 °F69.8 °F62 %29.74 in6.2 miEast (80°)16.1 mphPartly Cloudy
5:30 PM82.4 °F69.8 °F66 %29.74 in6.2 miENE (70°)18.4 mphPartly Cloudy
6:00 PM82.4 °F69.8 °F66 %29.74 in6.2 miENE (70°)16.1 mphPartly Cloudy
6:00 PM83.0 °F70.0 °F56 %29.74 inENE (70°)16.1 mph
6:30 PM82.4 °F69.8 °F66 %29.74 in6.2 miENE (60°)13.8 mphPartly Cloudy
7:00 PM80.6 °F69.8 °F70 %29.71 in6.2 miNE (50°)12.7 mphPartly Cloudy
7:30 PM80.6 °F69.8 °F70 %29.71 inNE (50°)13.8 mphClear
8:00 PM79.0 °F69.0 °F65 %29.73 inNE (50°)16.1 mph
8:00 PM78.8 °F69.8 °F74 %29.71 inNE (50°)16.1 mphClear
8:30 PM77.0 °F69.8 °F78 %29.71 in6.2 miNE (50°)13.8 mph
9:00 PM77.0 °F69.8 °F78 %29.71 in6.2 miNE (50°)12.7 mph
9:00 PM77.0 °F71.0 °F75 %29.74 inNE (50°)12.7 mph
9:30 PM77.0 °F69.8 °F78 %29.74 in6.2 miNE (40°)10.4 mph
10:00 PM77.0 °F69.8 °F78 %29.71 in6.2 miNE (40°)10.4 mph
10:30 PM77.0 °F69.8 °F78 %29.71 in6.2 miNNE (30°)10.4 mph
11:00 PM76.0 °F70.0 °F77 %29.73 inNNE (20°)10.4 mph
11:00 PM75.2 °F69.8 °F83 %29.71 in6.2 miNNE (20°)10.4 mph
11:30 PM75.2 °F69.8 °F83 %29.71 in6.2 miNNE (30°)9.2 mph
Hourly data recorded from YWLM, located miles away from Girvan, New South Wales







STORIES FROM OUR PARTNERS